Tracking 27422 objects as of 29-May-2023
HD Live streaming from Space Station
objects crossing your sky now

FREGAT DEB

Track FREGAT DEB now!
10-day predictions


NORAD ID: 45837
Int'l Code: 2011-037BX
Perigee: 604.6 km
Apogee: 4,222.7 km
Inclination: 51.4 °
Period: 136.6 minutes
Semi major axis: 8784 km
RCS: Unknown
Launch date: July 18, 2011
Source: Commonwealth of Independent States (former USSR) (CIS)
Launch site: TYURATAM MISSILE AND SPACE COMPLEX (TTMTR)

Note: This is SATELLITE DEBRIS
Your satellite tracking list
Your tracking list is empty




NASA's NSSDC Master Catalog

Two Line Element Set (TLE):
1 45837U 11037BX  23145.38834550  .00012406  00000-0  12110-1 0  9999
2 45837  51.4351 275.1551 2059281 284.5111  53.7143 10.54425242112818
Source of the keplerian elements: AFSPC